Temp
16 13 12 15 15 16 15 15 15 17 19 18 18 17 18 20 20 19 22 23 21 22 23 20 19 19 18 17 17 17 16 14 13 12 12 12 13 12 11 11 11 11 12 12
14 13 15 16 16 15 15 15 15 17 18 19 17 17 17 18 19 22 23 23 24 22 21 19 18 18 18 17 16 16 15 14 13 13 13 13 13 12 11 11 10 11 11 11
14 15 16 15 15 15 15 15 16 16 18 18 17 18 18 19 20 22 23 24 24 24 22 19 17 16 17 16 15 15 15 15 14 13 12 12 11 10 10 10 9 9 9 10
14 16 16 15 16 16 15 17 17 17 17 16 17 15 17 18 19 19 15 16 19 22 22 20 17 16 16 16 15 14 14 14 12 12 12 12 12 11 11 10 9 8 8 9
14 15 15 15 16 17 16 17 17 17 16 15 16 15 17 18 18 14 13 13 16 20 21 19 19 18 15 14 14 14 13 12 11 12 12 12 11 10 10 10 9 9 9 9
14 16 15 15 16 16 17 17 16 16 15 15 16 15 14 13 14 13 13 12 11 17 17 15 12 12 12 13 13 12 12 11 11 11 11 11 10 9 9 9 8 9 9 8
14 14 15 15 14 16 16 16 11 12 12 14 16 15 15 14 13 12 12 11 11 11 10 10 9 10 11 11 11 11 11 11 10 10 9 9 9 9 9 9 9 8 8 8
12 11 14 15 15 15 15 15 10 12 12 13 16 15 14 13 12 12 12 11 11 11 11 10 9 10 11 11 11 11 10 10 9 9 9 8 8 8 8 8 8 7 7 7
12 13 16 17 15 15 14 15 15 13 12 11 12 14 14 12 12 12 12 11 11 12 13 12 12 12 11 10 10 10 10 9 9 8 8 8 8 8 7 7 6 6 6 5
14 13 16 17 17 16 15 15 13 9 11 11 11 14 12 13 11 12 11 10 12 13 12 12 12 11 11 10 10 10 10 9 8 8 8 8 8 7 6 6 6 6 5 5
13 13 13 15 15 14 14 12 10 10 9 10 10 10 12 10 10 10 11 10 11 12 12 12 12 11 11 11 10 10 9 9 8 8 8 8 7 6 6 5 5 4 4 4
12 10 10 13 14 15 13 11 10 8 9 9 9 10 12 10 10 10 11 11 12 12 12 13 13 12 11 10 9 9 9 9 9 8 7 6 6 5 4 4 4 3 3 3
12 9 9 10 12 12 11 10 10 10 9 9 8 9 11 11 11 11 11 12 12 12 12 12 12 12 11 10 10 9 9 9 8 8 6 6 5 4 4 3 3 2 3 3
12 10 8 9 9 8 8 9 9 9 7 7 8 9 10 10 10 10 11 12 12 13 12 12 12 11 11 10 9 9 8 8 7 6 6 5 5 4 4 3 2 2 2 1
10 7 8 9 10 9 8 9 8 8 9 8 10 9 11 10 10 10 11 12 11 12 12 12 11 11 11 10 10 9 8 8 7 6 6 5 4 4 3 3 2 2 1 -0
7 7 7 8 9 8 8 8 9 8 9 8 9 8 10 11 11 10 11 10 10 12 12 12 12 11 11 10 9 10 9 8 7 6 5 5 4 4 3 2 1 1 -1 -1
6 6 6 8 9 8 6 8 8 9 8 8 6 9 10 8 9 10 11 11 11 12 12 12 11 11 10 10 10 9 9 8 7 6 5 4 4 3 2 1 0 -0 -1 -2
5 5 5 7 7 6 9 11 11 9 10 9 9 9 9 10 10 11 12 12 11 11 11 11 11 10 10 9 9 8 8 7 6 5 5 4 3 2 2 1 -0 -1 -2 -3
5 5 5 6 7 8 8 10 8 8 9 10 9 10 10 11 11 9 11 12 11 12 11 10 10 10 9 9 8 7 7 7 5 5 4 4 3 2 1 0 -1 -2 -2 -3
5 4 5 5 6 6 8 9 10 9 6 9 9 9 9 9 5 3 11 11 11 11 10 10 10 9 9 9 8 8 7 6 6 5 4 4 2 2 2 0 -1 -2 -3 -3
4 4 5 5 6 5 7 10 10 7 7 11 11 11 9 6 9 11 10 10 10 10 9 9 8 8 8 8 8 8 7 5 4 4 3 3 2 1 0 -1 -1 -2 -3 -4
4 3 3 4 5 5 6 8 7 6 10 11 12 12 10 10 10 10 10 9 9 8 8 8 8 7 7 7 7 7 6 4 2 2 2 2 1 0 -0 -1 -2 -3 -4 -5
2 3 2 3 2 4 3 2 5 4 5 7 8 10 12 10 9 8 8 8 8 8 8 7 7 7 6 5 5 5 4 3 0 1 1 1 0 -0 -1 -2 -3 -4 -5 -6
2 2 1 1 3 2 4 3 3 3 3 4 5 9 9 11 10 8 8 8 8 8 8 7 6 6 5 4 4 3 1 -0 -0 -0 0 -0 -0 -1 -2 -3 -4 -5 -5 -6
-1 -0 -0 0 2 3 4 4 4 4 3 3 4 6 9 9 9 8 8 8 8 8 7 6 5 5 4 3 3 3 1 -1 -1 -1 -1 -1 -1 -2 -3 -4 -5 -5 -5 -5
0 1 -1 -0 2 2 2 3 4 3 3 3 3 3 5 8 8 9 8 9 8 7 7 6 5 4 3 3 3 2 1 -2 -2 -2 -2 -2 -2 -3 -4 -5 -6 -6 -6 -7
Height
1484 1491 1493 1482 1482 1484 1485 1485 1482 1473 1459 1467 1462 1459 1453 1449 1448 1448 1444 1444 1444 1443 1444 1448 1451 1454 1459 1463 1467 1471 1476 1480 1483 1486 1491 1497 1502 1508 1512 1514 1516 1518 1519 1520
1486 1483 1480 1476 1480 1484 1484 1484 1480 1469 1460 1457 1457 1455 1449 1446 1444 1442 1440 1437 1435 1435 1441 1444 1446 1449 1452 1455 1461 1466 1471 1475 1480 1482 1487 1492 1497 1502 1508 1511 1514 1515 1517 1518
1476 1472 1470 1474 1477 1481 1479 1480 1475 1471 1458 1452 1452 1447 1447 1443 1441 1438 1435 1432 1431 1430 1430 1436 1439 1443 1447 1452 1455 1460 1467 1473 1478 1481 1484 1488 1492 1497 1502 1507 1511 1513 1515 1516
1468 1467 1469 1471 1470 1471 1476 1465 1463 1462 1466 1470 1452 1461 1447 1442 1438 1434 1437 1432 1426 1426 1424 1425 1429 1434 1440 1444 1453 1459 1466 1470 1476 1481 1482 1483 1484 1489 1497 1502 1506 1510 1513 1515
1461 1460 1465 1464 1463 1463 1464 1460 1457 1456 1461 1461 1459 1465 1445 1438 1442 1443 1437 1430 1423 1417 1417 1419 1420 1425 1434 1442 1451 1459 1465 1470 1475 1478 1481 1481 1484 1489 1492 1495 1499 1504 1508 1510
1456 1456 1457 1455 1453 1455 1455 1458 1456 1453 1459 1466 1458 1464 1456 1456 1450 1446 1439 1434 1424 1412 1415 1421 1426 1428 1433 1443 1452 1460 1467 1472 1475 1477 1477 1479 1481 1482 1486 1490 1495 1500 1504 1506
1453 1450 1449 1451 1453 1449 1454 1464 1488 1479 1476 1459 1445 1454 1447 1451 1451 1448 1443 1437 1431 1426 1427 1430 1434 1432 1437 1446 1457 1466 1472 1474 1477 1479 1479 1479 1480 1484 1485 1487 1490 1496 1500 1502
1457 1459 1438 1432 1439 1444 1444 1454 1483 1478 1476 1463 1445 1453 1447 1450 1451 1448 1444 1443 1439 1436 1440 1441 1444 1447 1453 1461 1467 1470 1474 1476 1478 1482 1480 1480 1483 1485 1486 1487 1492 1495 1498 1501
1448 1444 1420 1417 1422 1433 1441 1446 1448 1459 1461 1471 1460 1449 1450 1450 1452 1449 1447 1445 1446 1446 1448 1450 1453 1457 1461 1466 1471 1471 1474 1476 1481 1483 1483 1483 1484 1484 1485 1487 1491 1494 1497 1499
1429 1438 1420 1419 1419 1422 1426 1431 1453 1471 1469 1469 1458 1445 1451 1448 1452 1449 1450 1449 1448 1449 1455 1455 1458 1458 1458 1462 1464 1467 1472 1476 1478 1479 1481 1482 1483 1483 1484 1485 1488 1490 1492 1495
1425 1429 1432 1422 1425 1427 1428 1436 1449 1459 1465 1461 1462 1459 1444 1448 1449 1450 1450 1448 1447 1449 1452 1453 1453 1454 1457 1459 1458 1459 1463 1468 1472 1474 1475 1478 1480 1482 1483 1484 1486 1488 1489 1491
1424 1430 1438 1430 1421 1420 1425 1431 1445 1464 1463 1462 1460 1457 1443 1444 1445 1446 1448 1450 1451 1451 1451 1452 1453 1454 1454 1457 1460 1463 1465 1469 1470 1472 1472 1474 1478 1480 1482 1482 1483 1484 1486 1487
1421 1435 1442 1440 1432 1426 1431 1437 1439 1445 1451 1455 1461 1457 1445 1446 1446 1448 1448 1450 1453 1451 1448 1448 1450 1451 1453 1457 1459 1462 1465 1466 1469 1470 1472 1474 1477 1479 1481 1481 1481 1481 1482 1484
1420 1429 1433 1434 1438 1435 1438 1436 1438 1440 1454 1454 1453 1448 1444 1446 1445 1446 1445 1447 1448 1448 1447 1445 1446 1449 1451 1454 1455 1458 1460 1462 1464 1466 1466 1468 1470 1472 1475 1477 1479 1479 1480 1481
1422 1430 1431 1428 1427 1432 1435 1437 1435 1437 1433 1445 1429 1439 1427 1434 1437 1438 1442 1444 1441 1439 1441 1442 1442 1445 1448 1450 1452 1455 1457 1459 1460 1463 1466 1466 1469 1470 1471 1471 1475 1477 1478 1477
1425 1429 1429 1428 1425 1429 1434 1429 1424 1428 1426 1430 1430 1430 1420 1424 1431 1433 1433 1433 1431 1431 1432 1434 1437 1440 1443 1446 1448 1451 1452 1454 1457 1459 1461 1463 1464 1466 1469 1468 1469 1470 1472 1472
1429 1430 1432 1426 1422 1427 1439 1419 1426 1414 1418 1422 1434 1415 1412 1420 1424 1426 1423 1423 1423 1424 1425 1427 1431 1435 1439 1442 1444 1446 1448 1451 1451 1454 1456 1458 1461 1462 1463 1464 1466 1467 1467 1469
1426 1429 1428 1426 1429 1432 1410 1404 1406 1408 1407 1412 1412 1406 1409 1409 1413 1414 1415 1413 1416 1418 1420 1423 1427 1431 1435 1438 1439 1441 1445 1448 1449 1450 1452 1455 1457 1457 1459 1461 1462 1464 1466 1467
1422 1423 1421 1421 1416 1408 1408 1393 1400 1404 1400 1400 1399 1401 1402 1403 1407 1405 1405 1405 1409 1412 1415 1419 1424 1427 1431 1433 1435 1438 1440 1441 1444 1445 1448 1451 1453 1453 1455 1456 1458 1460 1461 1464
1413 1420 1418 1412 1409 1408 1398 1390 1390 1394 1411 1386 1396 1397 1396 1402 1414 1403 1400 1402 1407 1411 1414 1417 1420 1423 1426 1428 1430 1432 1433 1436 1438 1440 1444 1447 1449 1450 1451 1452 1454 1456 1458 1461
1414 1414 1406 1404 1402 1404 1393 1391 1389 1405 1401 1383 1386 1389 1390 1393 1389 1393 1397 1400 1405 1409 1412 1414 1418 1420 1422 1424 1426 1427 1428 1430 1433 1437 1439 1442 1443 1445 1447 1449 1450 1452 1455 1459
1410 1413 1411 1404 1400 1401 1399 1391 1397 1398 1386 1382 1379 1379 1381 1380 1381 1386 1391 1396 1399 1405 1408 1412 1415 1417 1419 1420 1422 1423 1425 1425 1428 1431 1433 1435 1437 1439 1441 1444 1446 1449 1452 1455
1416 1409 1412 1411 1406 1396 1400 1403 1397 1398 1393 1384 1384 1382 1376 1375 1377 1381 1386 1392 1396 1401 1405 1408 1410 1411 1415 1417 1419 1420 1421 1421 1422 1425 1428 1430 1432 1434 1435 1437 1440 1443 1447 1451
1409 1407 1408 1407 1397 1395 1394 1395 1394 1393 1388 1383 1381 1378 1374 1373 1374 1379 1383 1388 1393 1398 1400 1403 1405 1407 1410 1412 1414 1416 1416 1418 1419 1421 1423 1425 1427 1428 1431 1433 1435 1440 1443 1446
1406 1404 1404 1396 1394 1394 1391 1389 1391 1388 1386 1381 1378 1373 1369 1371 1372 1375 1379 1383 1388 1391 1394 1397 1401 1403 1406 1408 1410 1411 1411 1413 1415 1417 1419 1421 1423 1424 1427 1429 1431 1434 1439 1442
1391 1390 1395 1393 1392 1391 1384 1382 1382 1383 1381 1377 1375 1370 1367 1367 1370 1372 1375 1378 1383 1385 1389 1393 1397 1399 1399 1402 1404 1406 1406 1408 1410 1412 1414 1416 1418 1420 1423 1425 1429 1432 1436 1440
Wind_Speed
7 5 8 20 16 15 7 12 15 15 22 7 11 6 8 15 10 13 23 21 34 44 45 45 48 45 46 51 48 44 41 38 39 39 36 32 29 25 21 19 19 20 19 19
4 14 12 15 10 12 14 16 19 16 16 14 11 9 9 7 8 18 25 32 31 34 46 36 45 49 51 54 52 48 44 39 39 37 33 29 27 24 20 19 20 21 20 18
16 7 16 14 14 14 16 15 16 15 12 6 6 10 4 7 6 18 26 31 39 33 42 40 45 51 54 56 55 51 44 37 35 32 29 27 24 23 21 19 20 20 19 18
13 17 19 16 14 15 16 13 14 12 6 10 3 8 5 8 12 10 17 21 22 32 35 47 50 54 58 59 55 47 39 34 30 28 28 29 30 27 20 20 21 20 19 18
7 3 8 15 16 11 14 11 17 14 5 3 2 6 2 4 5 8 10 24 24 21 36 45 54 57 57 57 50 41 36 30 27 25 26 27 25 18 18 21 22 22 21 20
13 13 4 5 9 9 7 7 6 2 3 12 6 6 2 2 3 5 14 23 28 11 24 32 37 46 49 48 43 36 29 25 23 24 26 25 22 24 23 22 22 22 22 21
17 23 21 19 15 15 8 1 4 3 3 11 10 8 4 4 5 5 9 20 28 26 23 24 27 38 42 40 34 27 21 18 20 24 23 22 22 23 20 21 23 21 22 22
11 6 17 14 23 16 13 12 5 5 4 2 2 5 4 6 9 14 20 24 29 27 26 23 23 24 24 22 18 16 16 16 17 23 20 21 21 20 20 19 19 18 17 18
8 6 3 4 8 14 7 13 11 9 5 3 3 3 3 8 7 10 17 26 28 27 24 21 19 14 10 7 6 12 11 12 23 22 21 20 20 20 20 21 21 17 18 18
5 2 3 3 5 7 7 7 6 3 4 5 3 6 4 2 10 11 10 12 16 18 14 9 7 7 7 15 18 17 17 19 25 24 22 21 22 20 20 23 21 21 20 19
5 3 4 4 3 5 1 5 7 5 3 3 3 2 2 6 8 11 9 14 13 11 8 8 10 12 16 20 22 23 25 24 22 21 22 23 22 22 23 22 21 20 19 18
2 4 5 4 1 3 3 4 7 4 5 4 3 4 6 7 7 11 13 17 12 9 7 7 9 14 18 24 24 23 20 19 19 20 22 22 22 22 23 23 23 21 21 19
1 1 2 5 4 4 4 3 5 5 2 4 4 3 3 2 4 5 7 7 11 4 8 13 17 20 20 20 22 21 19 18 19 21 22 22 21 22 22 22 21 21 22 24
7 1 5 7 4 3 3 4 6 6 3 4 6 4 7 7 4 5 10 14 20 21 12 12 19 22 21 22 22 21 20 19 18 21 22 21 20 20 22 22 22 23 21 22
4 7 6 7 5 4 5 5 9 8 10 8 14 16 21 14 9 15 22 28 34 30 20 15 21 22 23 23 23 20 20 19 20 20 20 17 16 15 16 18 22 26 24 22
2 5 6 9 9 9 5 14 14 12 12 10 9 12 14 13 11 18 26 29 29 28 22 19 21 27 24 23 21 15 20 21 21 22 21 21 20 20 22 25 27 25 21 21
1 4 3 9 5 4 5 21 14 16 5 15 10 18 2 8 11 21 27 28 29 26 21 18 21 26 23 20 18 18 20 22 24 24 23 24 24 25 24 23 21 20 22 20
3 3 3 6 4 8 12 17 21 16 15 12 11 17 10 16 22 29 31 32 20 17 19 20 21 20 18 18 19 21 23 23 26 27 25 25 25 26 24 21 21 22 21 20
12 3 4 5 11 8 6 16 8 9 17 15 21 18 16 17 13 12 20 22 24 26 25 24 20 17 16 13 14 18 20 22 25 28 26 21 19 20 21 22 22 24 23 21
14 13 6 4 5 10 15 9 3 6 4 5 11 16 14 10 4 5 13 18 25 27 26 22 18 15 13 13 13 14 13 14 19 22 22 19 17 17 19 21 23 24 24 22
4 8 14 12 8 3 7 2 6 8 7 2 16 21 19 8 14 12 24 24 26 25 22 19 17 15 15 16 16 16 16 17 17 18 19 20 19 19 21 22 23 25 25 24
1 2 2 3 10 11 16 7 6 4 13 15 13 17 26 29 23 20 30 29 27 24 20 17 15 15 15 15 16 17 19 18 17 18 20 21 21 21 23 24 25 27 27 26
4 4 2 3 4 11 17 14 17 17 21 21 22 17 16 17 20 31 34 30 26 22 18 17 16 13 13 11 11 12 14 15 16 18 18 19 20 23 25 26 28 28 27 26
4 4 3 1 7 8 19 20 24 29 29 31 25 24 24 26 29 34 32 28 24 22 20 18 17 14 12 10 10 12 14 15 15 17 18 21 22 24 25 25 26 26 27 29
6 3 6 7 10 17 20 16 24 37 35 30 23 18 23 29 34 35 32 27 23 19 18 17 16 14 13 11 12 13 14 15 17 17 18 20 21 23 24 23 24 25 26 26
15 18 8 9 14 11 18 34 29 30 27 29 27 18 18 27 28 28 31 26 24 19 16 18 16 15 13 12 12 12 12 14 16 18 19 20 22 23 23 22 22 22 21 20
Wind_Direction
197 176 201 217 220 239 277 278 274 270 280 295 276 273 291 306 294 264 230 231 217 221 223 214 208 209 206 201 203 202 199 202 202 204 207 210 214 215 211 207 209 210 210 210
257 231 217 232 238 234 245 257 266 276 270 281 264 263 267 264 245 264 272 257 243 227 221 215 203 200 203 200 199 197 199 203 207 212 211 212 211 213 211 208 209 211 209 208
224 215 214 217 239 247 249 249 259 259 285 282 299 283 280 270 274 281 265 262 256 244 220 207 197 197 198 199 197 197 199 206 209 207 202 200 203 208 208 209 211 209 209 211
248 234 243 247 234 230 253 262 269 271 264 278 107 289 325 296 290 281 358 339 299 264 233 206 200 197 199 199 197 198 200 202 201 201 206 212 209 202 206 217 218 213 209 214
216 277 230 231 246 246 261 264 261 263 241 281 221 297 86 337 308 349 345 344 326 273 236 204 202 202 197 196 192 194 196 194 197 205 214 213 208 202 206 212 216 215 215 214
250 251 270 207 284 254 305 308 327 323 68 273 196 198 40 14 297 326 8 16 23 1 198 189 179 181 185 187 187 188 185 191 202 209 210 212 208 201 204 213 215 215 217 215
251 252 254 253 271 282 270 80 307 296 176 253 185 205 229 162 92 66 39 38 54 77 95 127 145 163 174 176 175 177 184 198 208 206 213 215 213 218 226 229 219 216 220 218
203 277 212 206 220 221 224 192 183 217 210 271 15 225 166 129 106 78 67 63 73 88 92 109 120 139 145 152 167 183 200 198 213 218 203 202 217 231 228 227 223 224 226 220
190 243 182 168 178 182 224 229 201 255 316 322 229 102 118 148 106 78 76 75 77 83 96 108 120 126 142 177 214 216 209 214 206 206 208 217 229 233 231 222 216 222 224 221
238 252 261 106 128 170 163 161 136 159 194 219 227 199 210 147 113 98 86 87 109 102 88 103 127 147 198 198 198 195 202 203 203 212 224 232 235 233 221 216 219 220 224 225
220 147 271 106 196 177 207 121 64 118 183 209 183 225 183 139 133 125 125 137 110 97 119 193 227 235 231 215 212 210 205 203 211 226 235 233 232 225 220 223 218 221 225 225
337 137 188 191 145 42 76 104 136 142 189 219 174 225 168 159 150 127 116 116 142 154 151 174 213 221 209 203 201 202 206 222 231 245 238 227 230 226 219 215 216 221 225 221
143 25 94 344 348 35 111 128 128 112 89 207 152 227 74 79 97 115 130 147 158 186 225 219 215 212 218 212 212 216 223 234 241 236 235 231 228 229 229 230 230 228 222 222
122 184 192 227 204 144 151 157 177 152 156 149 218 240 250 243 245 300 294 284 285 270 271 238 228 214 214 216 219 220 227 233 235 229 229 232 236 240 241 239 233 224 228 239
157 205 198 230 212 179 183 201 201 192 214 188 251 219 242 219 214 219 240 261 267 267 262 235 220 218 214 218 220 227 234 238 235 232 232 235 233 232 230 221 228 251 250 248
309 234 179 251 237 193 206 235 236 212 216 225 252 258 238 225 218 216 237 247 249 260 259 244 225 215 214 219 218 240 242 241 242 235 237 233 228 233 236 235 235 239 241 244
257 184 135 255 251 163 233 239 214 220 176 200 208 236 212 216 219 230 239 240 240 253 252 235 220 204 212 217 226 241 246 243 239 239 239 239 237 237 242 243 243 247 243 233
247 166 162 246 111 226 235 249 233 221 231 203 225 246 235 233 229 245 251 253 245 198 178 180 177 181 194 206 221 234 240 248 246 241 245 243 243 245 250 247 245 238 235 232
215 191 215 212 224 244 318 246 195 187 243 212 220 242 242 251 230 237 247 237 207 192 183 175 174 180 190 212 226 232 242 247 245 242 242 248 253 254 248 245 240 236 234 230
213 218 219 184 215 222 226 241 119 103 247 224 194 234 242 157 190 240 188 197 188 176 173 175 180 185 192 206 220 231 235 235 241 243 244 245 249 251 247 243 239 238 234 232
189 217 231 230 232 248 270 339 80 177 238 265 213 227 221 191 223 231 185 179 178 177 177 177 182 194 204 215 228 238 242 239 242 245 246 246 246 249 247 244 240 235 231 228
248 193 271 290 230 239 9 303 227 292 292 295 285 259 238 242 242 226 189 176 171 176 179 185 197 209 222 224 234 243 246 240 236 242 246 246 245 246 243 241 238 231 226 221
249 216 218 249 265 338 352 328 322 339 315 313 315 273 216 187 179 175 172 173 177 185 191 202 204 204 217 225 236 246 249 245 233 232 238 240 243 241 237 233 230 225 220 219
262 168 205 283 241 272 318 317 318 330 323 326 303 295 239 215 188 175 175 178 188 198 205 204 204 209 220 232 245 255 240 232 229 227 232 237 238 237 234 231 231 226 221 221
218 209 224 242 269 285 286 296 307 310 313 314 313 278 243 219 192 183 181 188 194 200 203 215 220 219 219 232 248 254 232 221 222 226 231 234 237 236 233 232 230 225 228 232
240 243 237 259 256 254 278 286 293 291 288 296 301 297 235 203 193 200 196 197 198 198 207 221 222 217 217 234 245 255 241 226 224 228 231 233 235 233 229 225 217 221 228 231